Location: Grums
(59.3529°N, 13.1129°E)
Time: 22:34:21
(UTC+02:00)

Envisat - Pass Details

Date: 04 October 2021
Orbit: 764 x 766 km, 98.2° (Epoch: 19 October)

Event Time Altitude Azimuth Distance (km) Brightness Sun altitude
Rises 05:18:17 0° 20° (NNE) 3,247 6.9 -16.1°
Reaches altitude 10° 05:21:02 10° 34° (NE) 2,316 6.3 -15.7°
Maximum altitude 05:25:11 25° 89° (E) 1,529 5.4 -15.2°
Drops below altitude 10° 05:29:19 10° 144° (SE) 2,302 5.7 -14.7°
Sets 05:32:01 0° 157° (SSE) 3,223 6.3 -14.4°
